| time (UTC) | temp C | wind direction | speed KPH | gust KPH | rain 1hr cm | rain 24hr cm | rain mn cm | humidity % | barometer mb |
| 20260901160031 | 21 | 206 | 0.0 | 0.0 | 0.03 | 3.23 | 2.21 | 1 | 1009.7 |
| 20260901154525 | 20 | 206 | 0.0 | 0.0 | 0.03 | 3.23 | 2.21 | 1 | 1009.8 |
| 20260901153025 | 20 | 206 | 0.0 | 0.0 | 0.08 | 3.23 | 2.21 | 1 | 1009.9 |
| 20260901151516 | 20 | 206 | 0.0 | 0.0 | 0.05 | 3.20 | 2.18 | 1 | 1009.8 |
| 20260901150017 | 20 | 206 | 0.0 | 0.0 | 0.38 | 3.20 | 2.18 | 1 | 1009.8 |
| 20260901144514 | 21 | 206 | 0.0 | 0.0 | 0.46 | 3.20 | 2.18 | 1 | 1009.7 |
| 20260901143010 | 19 | 206 | 0.0 | 0.0 | 0.61 | 3.17 | 2.16 | 1 | 1009.7 |
| 20260901141506 | 19 | 206 | 0.0 | 0.0 | 0.69 | 3.15 | 2.13 | 1 | 1009.9 |
| 20260901140003 | 20 | 196 | 0.0 | 0.0 | 0.43 | 2.82 | 1.80 | 1 | 1009.9 |
| 20260901134613 | 19 | 196 | 0.0 | 0.0 | 0.46 | 2.74 | 1.73 | 1 | 1009.6 |
| 20260901133058 | 19 | 196 | 0.0 | 0.0 | 0.58 | 2.62 | 1.60 | 1 | 1010.3 |
| 20260901131553 | 19 | 202 | 0.0 | 0.0 | 0.86 | 2.51 | 1.50 | 1 | 1010.3 |
| 20260901130046 | 18 | 97 | 0.0 | 0.0 | 1.12 | 2.39 | 1.37 | 1 | 1010.2 |
| 20260901124543 | 18 | 98 | 0.0 | 0.0 | 1.12 | 2.31 | 1.30 | 1 | 1010.3 |
| 20260901123036 | 18 | 152 | 0.0 | 0.0 | 0.97 | 2.11 | 1.09 | 1 | 1010.9 |
| 20260901121530 | 18 | 150 | 0.0 | 0.0 | 0.61 | 1.73 | 0.71 | 1 | 1010.9 |
| 20260901120052 | 18 | 151 | 0.0 | 0.0 | 0.18 | 1.30 | 0.28 | 1 | 1010.5 |
| 20260901114534 | 70 | 151 | 0.0 | 0.0 | 0.13 | 1.24 | 0.23 | 1 | 1010.7 |
| 20260901113033 | 19 | 152 | 0.0 | 0.0 | 0.08 | 1.17 | 0.15 | 1 | 1010.4 |
| 20260901111526 | 20 | 220 | 0.0 | 0.0 | 0.03 | 1.12 | 0.10 | 1 | 1010.0 |
| 20260901110029 | 70 | 220 | 0.0 | 0.0 | 0.03 | 1.12 | 0.10 | 1 | 1009.9 |
| 20260901104526 | 70 | 220 | 0.0 | 0.0 | 0.03 | 1.12 | 0.10 | 1 | 1010.1 |
| 20260901103028 | 70 | 220 | 0.0 | 0.0 | 0.00 | 1.09 | 0.08 | 1 | 1010.0 |
| 20260901101522 | 70 | 220 | 0.0 | 0.0 | 0.00 | 1.09 | 0.08 | 1 | 1009.9 |
| 20260901100008 | 70 | 220 | 0.0 | 0.0 | 0.00 | 1.09 | 0.08 | 1 | 1010.0 |
| 20260901094506 | 70 | 220 | 0.0 | 0.0 | 0.03 | 1.09 | 0.08 | 1 | 1010.3 |
| 20260901093006 | 70 | 220 | 0.0 | 0.0 | 0.03 | 1.09 | 0.08 | 1 | 1010.5 |
| 20260901091505 | 70 | 220 | 0.0 | 0.0 | 0.05 | 1.09 | 0.08 | 1 | 1010.5 |
| 20260901090008 | 70 | 220 | 0.0 | 0.0 | 0.05 | 1.09 | 0.08 | 1 | 1010.8 |
| 20260901084503 | 70 | 220 | 0.0 | 0.0 | 0.05 | 1.07 | 0.05 | 1 | 1011.0 |
| 20260901083002 | 70 | 220 | 0.0 | 0.0 | 0.05 | 1.07 | 0.05 | 1 | 1011.3 |
| 20260901081601 | 70 | 220 | 0.0 | 0.0 | 0.05 | 1.07 | 0.05 | 1 | 1011.5 |
| 20260901074600 | 70 | 220 | 0.0 | 0.0 | 0.00 | 1.02 | 0.00 | 1 | 1011.5 |
| 20260901073057 | 70 | 220 | 0.0 | 0.0 | 0.00 | 1.02 | 0.00 | 1 | 1011.7 |
| 20260901071556 | 70 | 220 | 0.0 | 0.0 | 0.00 | 1.02 | 0.00 | 1 | 1011.9 |
| 20260901064556 | 70 | 220 | 0.0 | 0.0 | 0.00 | 1.02 | 0.00 | 1 | 1011.9 |
| 20260901063054 | 70 | 220 | 0.0 | 0.0 | 0.00 | 1.02 | 0.00 | 1 | 1012.0 |
| 20260901061553 | 70 | 220 | 0.0 | 0.0 | 0.00 | 1.02 | 0.00 | 1 | 1012.2 |
| 20260901054550 | 70 | 220 | 0.0 | 0.0 | 0.00 | 1.02 | 0.00 | 1 | 1012.7 |
| 20260901053116 | 70 | 220 | 0.0 | 0.0 | 0.00 | 1.02 | 0.00 | 1 | 1012.9 |
| 20260901051603 | 70 | 220 | 0.0 | 0.0 | 0.00 | 1.02 | 0.00 | 1 | 1012.9 |
| 20260901044555 | 70 | 220 | 0.0 | 0.0 | 0.00 | 1.02 | 0.00 | 1 | 1013.1 |
| 20260901043040 | 70 | 220 | 0.0 | 0.0 | 0.00 | 1.02 | 1.02 | 1 | 1013.3 |
| 20260901041535 | 70 | 220 | 0.0 | 0.0 | 0.00 | 1.02 | 1.02 | 1 | 1013.2 |
| 20260901034532 | 70 | 220 | 0.0 | 0.0 | 0.00 | 1.02 | 1.02 | 1 | 1013.4 |
| 20260901033029 | 70 | 220 | 0.0 | 0.0 | 0.00 | 1.02 | 1.02 | 1 | 1013.5 |
| 20260901031524 | 70 | 220 | 0.0 | 0.0 | 0.00 | 1.02 | 1.02 | 1 | 1013.5 |
| 20260901024513 | 70 | 220 | 0.0 | 0.0 | 0.00 | 1.02 | 1.02 | 1 | 1013.7 |
| 20260901023011 | 70 | 220 | 0.0 | 0.0 | 0.00 | 1.02 | 1.02 | 1 | 1014.0 |
| 20260901021510 | 70 | 220 | 0.0 | 0.0 | 0.10 | 1.02 | 1.02 | 1 | 1014.0 |
| 20260901014501 | 70 | 220 | 0.0 | 0.0 | 0.18 | 1.02 | 1.02 | 1 | 1014.3 |
| 20260901013058 | 70 | 220 | 0.0 | 0.0 | 0.18 | 1.02 | 1.02 | 1 | 1014.4 |
| 20260901011553 | 70 | 220 | 0.0 | 0.0 | 0.20 | 1.02 | 1.02 | 1 | 1014.5 |
| 20260901004543 | 70 | 220 | 0.0 | 0.0 | 0.03 | 0.84 | 0.84 | 1 | 1014.4 |
| 20260901003041 | 70 | 220 | 0.0 | 0.0 | 0.03 | 0.84 | 0.84 | 1 | 1014.3 |
| 20260901001535 | 70 | 220 | 0.0 | 0.0 | 0.00 | 0.81 | 0.81 | 1 | 1014.2 |
| 20260831234530 | 70 | 220 | 0.0 | 0.0 | 0.00 | 0.81 | 0.81 | 1 | 1014.5 |
| 20260831233026 | 70 | 220 | 0.0 | 0.0 | 0.03 | 0.81 | 0.81 | 1 | 1014.5 |
| 20260831231522 | 70 | 220 | 0.0 | 0.0 | 0.03 | 0.81 | 0.81 | 1 | 1014.7 |
| 20260831224518 | 70 | 220 | 0.0 | 0.0 | 0.05 | 0.81 | 0.81 | 1 | 1015.2 |
| 20260831223016 | 70 | 220 | 0.0 | 0.0 | 0.03 | 0.79 | 0.79 | 1 | 1015.5 |
| 20260831221512 | 70 | 220 | 0.0 | 0.0 | 0.03 | 0.79 | 0.79 | 1 | 1015.6 |
| 20260831214600 | 70 | 170 | 0.0 | 0.0 | 0.05 | 0.76 | 0.76 | 1 | 1015.9 |
| 20260831213103 | 70 | 173 | 0.0 | 0.0 | 0.05 | 0.76 | 0.76 | 1 | 1016.0 |
| 20260831211601 | 70 | 173 | 0.0 | 0.0 | 0.05 | 0.76 | 0.76 | 1 | 1016.1 |
| 20260831204550 | 70 | 173 | 0.0 | 0.0 | 0.18 | 0.71 | 0.71 | 1 | 1016.2 |
| 20260831203038 | 70 | 169 | 0.0 | 0.0 | 0.15 | 0.71 | 0.71 | 1 | 1016.3 |
| 20260831201533 | 70 | 169 | 0.0 | 0.0 | 0.15 | 0.71 | 0.71 | 1 | 1016.4 |
| 20260831194531 | 70 | 169 | 0.0 | 0.0 | 0.00 | 0.56 | 0.56 | 1 | 1016.7 |
| 20260831193034 | 70 | 168 | 0.0 | 0.0 | 0.00 | 0.56 | 0.56 | 1 | 1016.8 |
| 20260831191518 | 19 | 168 | 0.0 | 0.0 | 0.00 | 0.56 | 0.56 | 1 | 1017.0 |
| 20260831184513 | 19 | 173 | 0.0 | 0.0 | 0.05 | 0.56 | 0.56 | 1 | 1017.3 |
| 20260831183009 | 19 | 164 | 0.0 | 0.0 | 0.10 | 0.56 | 0.56 | 1 | 1017.6 |
| 20260831181505 | 18 | 167 | 0.0 | 0.0 | 0.15 | 0.56 | 0.56 | 1 | 1017.8 |
| 20260831174559 | 19 | 169 | 0.0 | 0.0 | 0.20 | 0.53 | 0.53 | 1 | 1018.2 |
| 20260831173055 | 19 | 169 | 0.0 | 0.0 | 0.20 | 0.46 | 0.46 | 1 | 1018.3 |
| 20260831171553 | 20 | 169 | 0.0 | 0.0 | 0.41 | 0.43 | 0.43 | 1 | 1018.5 |
| 20260831170149 | 20 | 165 | 0.0 | 0.0 | 0.36 | 0.36 | 0.36 | 1 | 1018.5 |
| 20260831164557 | 20 | 165 | 0.0 | 0.0 | 0.36 | 0.36 | 0.36 | 1 | 1018.6 |
| 20260831163044 | 21 | 94 | 0.0 | 0.0 | 0.25 | 0.25 | 0.25 | 1 | 1018.6 |
| 20260831161537 | 20 | 94 | 0.0 | 0.0 | 0.05 | 0.05 | 0.05 | 1 | 1018.8 |